Regional Weather Roundup
Issued by NWS Northern Indiana

Home | Current Version | Previous Version | Graphics & Text | Print | Product List | Glossary On
Versions: 1 2 3 4 5 6 7 8 9 10 11 12 13 14 15 16 17 18 19 20 21 22 23 24 25 26 27 28 29 30 31 32 33 34 35 36 37 38 39 40 41 42 43 44 45 46 47 48 49 50
000
ASUS43 KIWX 181500
RWRIWX

KIWX WEATHER ROUNDUP
NATIONAL WEATHER SERVICE NORTHERN INDIANA
1000 AM EST THU JAN 18 2018

NOTE: "FAIR" INDICATES FEW OR NO CLOUDS BELOW 12,000 FEET WITH NO
SIGNIFICANT WEATHER AND/OR OBSTRUCTIONS TO VISIBILITY.

* THESE STATIONS ARE NOT UNDER NWS QUALITY CONTROL. THEY ALSO MAY NOT
  REPORT WEATHER SUCH AS PRECIPITATION OR FOG.

INZ001>027-181600-
NORTHERN INDIANA

CITY           SKY/WX    TMP DP  RH WIND       PRES   REMARKS
GARY*          SUNNY     19  10  68 SW17      30.16F WCI   4
MICHIGAN CITY* FAIR      19  10  68 SW16      30.16S WCI   5
KNOX*          FAIR      18  10  73 SW14      30.19F WCI   4
SOUTH BEND     FAIR      16   9  74 SW16G26   30.14F WCI   1
ELKHART*       FAIR      18   9  68 SW14G21   30.14F WCI   4
GOSHEN         FAIR      17   9  70 SW21G29   30.15F WCI   0
MONTICELLO*    FAIR      17   8  69 SW17      30.24S WCI   1
FORT WAYNE     FAIR      19  10  68 SW21G30   30.19S WCI   3
PERU/GRISSOM   FAIR      17  10  75 SW17      30.22S WCI   1

$$
INZ028>050-181600-
CENTRAL INDIANA

CITY           SKY/WX    TMP DP  RH WIND       PRES   REMARKS
LAFAYETTE      FAIR      17   9  70 SW14      30.28S WCI   3
MUNCIE*        FAIR      18   7  62 SW13      30.25S WCI   5
INDIANAPOLIS   FAIR      15   7  70 SW20      30.32S WCI  -2

$$
MIZ043>046-050>051-056>058-064>065-071>073-077>080-181600-
SOUTHWEST LOWER MICHIGAN

CITY           SKY/WX    TMP DP  RH WIND       PRES   REMARKS
BATTLE CREEK   FAIR      18  11  74 SW17      30.07S WCI   3
BENTON HARBOR  FAIR      21  14  74 SW17G29   30.11S WCI   7
COLDWATER*     FAIR      17  10  72 SW14G20   30.10F WCI   3
HILLSDALE*     FAIR      19   9  63 W13G22    30.07S WCI   7
HOLLAND        CLOUDY    26  20  77 MISG      30.06R
GRAND RAPIDS   CLOUDY    25  19  78 SW22G29   30.03R WCI  10
KALAMAZOO      FAIR      18  10  71 SW14      30.09S WCI   4
STURGIS*       FAIR      19  11  71 SW13      30.11S WCI   5
THREE RIVERS*  FAIR      19  10  68 SW10G17   30.11F WCI   7

$$
OHZ001>008-015>018-024>025-181600-
NORTHWEST OHIO

CITY           SKY/WX    TMP DP  RH WIND       PRES   REMARKS
DEFIANCE       FAIR      18   9  68 SW12G22   30.17R WCI   5
FINDLAY        FAIR      19   7  59 SW17G25   30.18S WCI   4
TOLEDO EXPRESS FAIR      18  10  71 SW14      30.15R WCI   4
TOLEDO METCALF FAIR      18   9  68 SW17      30.17R WCI   3
LIMA           FAIR      16   9  74 SW16      30.19S WCI   1

$$
AND FOR LAKE MICHIGAN COASTAL AND OPEN LAKE BUOY OBSERVATIONS

STATION/POSITION TEMP    WIND        PRES    VSBY  WAVE
                 AIR SEA DIR/SP/G                  HT/PER
                 (F)     (DEG/KT/KT) (MB)    (MI)  (FT/S)
CALUMET HARBOR    18     220/ 10/ 14 1020.0F
MICHIGAN CITY     17     190/ 18/ 21   N/A
BURNS HARBOR      18     210/ 14/ 22 1021.3F
SAINT JOSEPH      22     220/ 19/ 28 1019.6

$$
&&




USA.gov is the U.S. government's official web portal to all federal, state and local government web resources and services.